Location: Unspecified
(48.8582°N, 2.2947°E)
Time: 19:59:33
(UTC+02:00)

ISS - Pass Details

Date: 26 March 2019
Orbit: 408 x 410 km, 51.6° (Epoch: 25 April)

Event Time Altitude Azimuth Distance (km) Brightness Sun altitude
Rises 20:57:02 0° 263° (W) 2,334 1.0 -17.4°
Reaches altitude 10° 20:59:08 10° 268° (W) 1,473 -0.1 -17.7°
Maximum altitude 21:02:24 59° 349° (NNW) 478 -3.4 -18.2°
Enters shadow 21:03:19 40° 47° (NE) 616 -3.1 -18.3°
